DW4063 Weather Reports


Display with metric or nautical units.
time (UTC)temp
F
wind
direction
speed
MPH
gust
MPH
rain 1hr
in
rain 24hr
in
rain mn
in
humidity
%
barometer
mb
20260505193023 56 337 2.0 10.0 0.00 0.14 0.12 33 1009.9
20260505191520 56 342 2.0 6.0 0.00 0.14 0.12 37 1010.1
20260505190019 55 214 1.0 9.0 0.00 0.14 0.12 38 1010.1
20260505184519 55 320 2.0 10.0 0.00 0.14 0.12 40 1010.0
20260505183022 56 266 3.0 10.0 0.00 0.14 0.12 37 1010.1
20260505181520 56 234 1.0 8.0 0.00 0.14 0.12 40 1010.0
20260505180027 56 5 2.0 9.0 0.00 0.14 0.12 39 1010.0
20260505174521 56 207 3.0 9.0 0.00 0.14 0.12 39 1009.8
20260505173018 56 315 4.0 11.0 0.00 0.14 0.12 36 1009.8
20260505171522 56 318 1.0 11.0 0.00 0.14 0.12 37 1009.7
20260505170024 56 360 1.0 11.0 0.00 0.14 0.12 39 1009.5
20260505164526 56 328 2.0 14.0 0.00 0.14 0.12 44 1009.5
20260505163024 55 325 1.0 7.0 0.00 0.14 0.12 52 1009.8
20260505161525 54 288 2.0 6.0 0.00 0.14 0.12 46 1009.7
20260505153026 52 246 2.0 8.0 0.00 0.14 0.12 55 1009.4
20260505151515 51 277 2.0 6.0 0.00 0.14 0.12 63 1009.4
20260505124505 45 293 0.0 1.0 0.08 0.10 0.08 84 1009.5
20260505123019 45 329 0.0 2.0 0.06 0.08 0.06 81 1009.7
20260505121530 46 329 0.0 2.0 0.04 0.06 0.04 77 1009.4
20260505120009 48 313 0.0 3.0 0.02 0.04 0.02 73 1009.9
20260505113011 50 313 0.0 6.0 0.00 0.02 0.00 63 1008.6
20260505111505 50 342 1.0 3.0 0.00 0.02 0.00 55 1007.8
20260505101514 51 297 0.0 5.0 0.00 0.02 0.00 57 1006.4
20260505100017 52 333 0.0 2.0 0.00 0.02 0.00 59 1006.7
20260505094524 53 329 0.0 4.0 0.00 0.02 0.00 53 1006.8
20260505093029 53 282 0.0 6.0 0.00 0.02 0.00 53 1006.5
20260505091527 54 324 1.0 4.0 0.00 0.02 0.00 57 1006.7
20260505090015 54 306 1.0 7.0 0.00 0.02 0.00 53 1006.2
20260505084526 55 349 1.0 5.0 0.00 0.02 0.00 51 1005.8
20260505083034 55 319 1.0 7.0 0.00 0.02 0.00 50 1005.5
20260505081525 55 326 1.0 8.0 0.00 0.02 0.00 49 1004.7
20260505080034 55 316 3.0 7.0 0.00 0.02 0.00 49 1004.6
20260505074521 56 355 1.0 6.0 0.00 0.02 0.00 49 1004.2
20260505073019 56 322 2.0 8.0 0.00 0.02 0.00 49 1004.2
20260505071537 56 306 0.0 3.0 0.00 0.02 0.00 50 1003.8
20260505070030 57 297 0.0 4.0 0.00 0.02 0.00 48 1003.5
20260505064526 57 315 0.0 10.0 0.00 0.02 0.00 47 1003.3
20260505063037 58 331 1.0 5.0 0.00 0.02 0.00 48 1003.3
20260505061532 58 333 2.0 10.0 0.00 0.02 0.00 47 1003.2
20260505060022 58 263 1.0 8.0 0.00 0.02 0.00 49 1003.3
20260505054520 58 301 2.0 7.0 0.00 0.02 0.00 50 1003.1
20260505053013 57 333 2.0 6.0 0.00 0.02 0.00 56 1003.4
20260505051517 58 277 0.0 1.0 0.00 0.02 0.00 64 1002.8
20260505041536 61 311 0.0 5.0 0.00 0.02 0.02 67 1002.0
20260505040020 61 309 0.0 3.0 0.00 0.02 0.02 69 1002.0
20260505034516 62 281 1.0 4.0 0.00 0.02 0.02 71 1002.1
20260505033011 62 221 1.0 4.0 0.00 0.02 0.02 71 1002.0
20260505031531 62 214 1.0 4.0 0.00 0.02 0.02 70 1001.6
20260505030024 61 301 1.0 5.0 0.00 0.02 0.02 71 1001.4
20260505023022 63 279 0.0 4.0 0.00 0.02 0.02 69 1001.3
20260505021516 63 194 1.0 4.0 0.00 0.02 0.02 68 1000.7
20260505020013 63 211 2.0 4.0 0.00 0.02 0.02 68 1000.3
20260505014526 63 236 1.0 3.0 0.00 0.02 0.02 70 1000.1
20260505013025 63 207 1.0 6.0 0.00 0.02 0.02 71 999.8
20260505011524 64 184 2.0 7.0 0.00 0.02 0.02 72 999.8
20260505010023 64 218 2.0 7.0 0.00 0.02 0.02 70 999.6
20260505003016 66 223 1.0 4.0 0.00 0.02 0.02 71 999.2
20260505001528 66 221 1.0 7.0 0.01 0.02 0.02 69 999.0
20260505000031 63 161 0.0 2.0 0.01 0.02 0.02 80 999.6
20260504234522 63 100 0.0 2.0 0.01 0.02 0.02 77 998.9
20260504231517 68 314 5.0 14.0 0.00 0.01 0.01 56 999.6
20260504230029 71 191 0.0 1.0 0.01 0.01 0.01 68 997.7
20260504224534 72 138 0.0 6.0 0.01 0.01 0.01 59 998.2
20260504223025 72 197 2.0 8.0 0.01 0.01 0.01 59 998.8
20260504221526 74 197 3.0 14.0 0.01 0.01 0.01 54 998.9
20260504220024 77 215 1.0 12.0 0.00 0.00 0.00 48 998.8
20260504214535 79 190 4.0 12.0 0.00 0.00 0.00 36 998.6
20260504213029 79 200 1.0 8.0 0.00 0.00 0.00 38 998.6
20260504211518 79 177 3.0 12.0 0.00 0.00 0.00 35 999.0
20260504210026 79 193 3.0 9.0 0.00 0.00 0.00 34 999.2
20260504203006 81 197 5.0 15.0 0.00 0.00 0.00 34 999.4
20260504201524 81 306 3.0 10.0 0.00 0.00 0.00 35 999.5
20260504194520 78 255 2.0 10.0 0.00 0.00 0.00 38 1000.1